{"data":{"norad_id":57373,"epoch":"2026-09-20T21:54:59.266080Z","epoch_age_seconds":88632,"freshness":"FRESH","line1":"1 57373U 23099AX  26263.91318595 -.00001019  00000+0 -27537-4 0  9998","line2":"2 57373  43.0019 219.3676 0000491 252.7524 107.3274 15.27569356176051","mean_motion":15.27569356,"eccentricity":4.91e-5,"inclination_deg":43.0019,"raan_deg":219.3676,"arg_perigee_deg":252.7524,"mean_anomaly_deg":107.3274,"bstar":-2.7537e-5,"rev_number":17605,"period_min":94.267405557984,"perigee_km":482.74408238764,"apogee_km":483.41785399212,"semimajor_km":6861.2179681899,"source":"CELESTRAK","updated_at":"2026-09-21T09:00:33.620950Z"}}